Weather History for Morgantown, WV

Change the Weather History Date:

Sunday, December 8, 2002

  Actual Average Record
Temperature  
Mean Temperature 30 °F 37 °F  
Max Temperature 37 °F 44 °F 74 °F (1966)
Min Temperature 21 °F 29 °F 10 °F (1977)
Degree Days  
Heating Degree Days 34 28  
Month to date heating degree days 217  
Since 1 July heating degree days 1265  
Cooling Degree Days 0 0  
Month to date cooling degree days 0  
Year to date cooling degree days 814  
Moisture  
Dew Point 29 °F    
Average Humidity 84    
Maximum Humidity 96    
Minimum Humidity 69    
Precipitation  
Precipitation 0.00 in 0.10 in 1.53 in (1978)
Month to date precipitation 0.82  
Year to date precipitation 39.74  
Sea Level Pressure  
Sea Level Pressure 30.30 in    
Wind  
Wind Speed 10 mph (West)    
Max Wind Speed 14 mph    
Max Gust Speed 18 mph    
Visibility 10 miles    
Events      
T = Trace of Precipitation, MM = Missing Value Source: NWS Daily Summary

Daily Weather History Graph

Daily Weather History Graph

Search for Another Location

Airport:

Trip Planner

Search our weather history database for the weather conditions in past years. The results will help you decide how hot, cold, wet, or windy it might be!

Date:

Astronomy

Dec. 08, 2002 Rise Set
Actual Time 7:27 AM EST 4:55 PM EST
Civil Twilight 6:57 AM EST 5:25 PM EST
Nautical Twilight 6:23 AM EST 5:59 PM EST
Astronomical Twilight 5:51 AM EST 6:31 PM EST
Moon 11:33 AM EST (12/8) 9:24 PM EST (12/8)
Length of Visible Light 10h 27m
Length of Day
9h 27m
Waxing Crescent, 22% of the Moon is Illuminated
Dec 8
Waxing Crescent
Dec 11
First Quarter
Dec 19
Full
Dec 26
Last Quarter
Jan 2
New

Hourly Weather History & Observations

Time (EST) Temp. Windchill Dew Point Humidity Pressure Visibility Wind Dir Wind Speed Gust Speed Precip Events Conditions
12:10 AM 33.8 °F 25.3 °F 28.4 °F 81% 30.18 in 10.0 mi SW 11.5 mph - N/A   Mostly Cloudy
12:53 AM 34.0 °F 26.6 °F 30.9 °F 89% 30.20 in 10.0 mi SW 9.2 mph - N/A   Overcast
1:53 AM 35.1 °F 27.9 °F 32.0 °F 89% 30.20 in 10.0 mi SW 9.2 mph - N/A   Overcast
2:53 AM 35.1 °F 28.6 °F 33.1 °F 92% 30.21 in 10.0 mi WSW 8.1 mph - N/A   Overcast
3:53 AM 35.1 °F 26.9 °F 33.1 °F 92% 30.22 in 10.0 mi WSW 11.5 mph 17.3 mph N/A   Overcast
4:53 AM 35.1 °F 27.9 °F 33.1 °F 92% 30.23 in 10.0 mi WSW 9.2 mph 16.1 mph N/A   Overcast
5:53 AM 35.1 °F 27.9 °F 34.0 °F 96% 30.23 in 10.0 mi SW 9.2 mph 16.1 mph N/A   Overcast
6:53 AM 35.1 °F 27.4 °F 34.0 °F 96% 30.23 in 10.0 mi SW 10.4 mph - N/A   Overcast
7:53 AM 36.0 °F 29.0 °F 34.0 °F 93% 30.25 in 10.0 mi SW 9.2 mph - N/A   Overcast
8:53 AM 36.0 °F 29.0 °F 34.0 °F 93% 30.26 in 10.0 mi WSW 9.2 mph - N/A   Overcast
9:53 AM 36.0 °F 28.5 °F 34.0 °F 93% 30.26 in 10.0 mi SW 10.4 mph - N/A   Overcast
10:53 AM 37.0 °F 30.4 °F 34.0 °F 89% 30.26 in 10.0 mi WSW 9.2 mph - N/A   Overcast
11:53 AM 37.0 °F 29.8 °F 34.0 °F 89% 30.25 in 10.0 mi SW 10.4 mph - N/A   Overcast
12:53 PM 37.0 °F 31.0 °F 34.0 °F 89% 30.24 in 10.0 mi WSW 8.1 mph 16.1 mph N/A   Overcast
1:53 PM 37.0 °F 30.4 °F 33.1 °F 86% 30.25 in 10.0 mi West 9.2 mph - N/A   Overcast
2:24 PM 37.4 °F 31.4 °F 33.8 °F 87% 30.22 in 10.0 mi WSW 8.1 mph - N/A   Mostly Cloudy
2:53 PM 37.0 °F 31.0 °F 32.0 °F 82% 30.26 in 10.0 mi West 8.1 mph - N/A   Scattered Clouds
3:53 PM 37.0 °F 31.0 °F 33.1 °F 86% 30.30 in 10.0 mi West 8.1 mph - N/A   Overcast
4:53 PM 35.1 °F 27.9 °F 28.0 °F 76% 30.33 in 10.0 mi WNW 9.2 mph - N/A   Mostly Cloudy
5:53 PM 34.0 °F 28.0 °F 25.0 °F 70% 30.35 in 10.0 mi NW 6.9 mph - N/A   Mostly Cloudy
6:53 PM 32.0 °F 24.8 °F 24.1 °F 73% 30.39 in 10.0 mi NNW 8.1 mph - N/A   Overcast
7:53 PM 28.9 °F 18.2 °F 19.9 °F 69% 30.44 in 10.0 mi NNW 13.8 mph 18.4 mph N/A   Scattered Clouds
8:53 PM 27.0 °F 17.3 °F 19.0 °F 72% 30.47 in 10.0 mi NNW 10.4 mph 16.1 mph N/A   Partly Cloudy
9:53 PM 26.1 °F 19.4 °F 17.1 °F 69% 30.49 in 10.0 mi Variable 5.8 mph - N/A   Partly Cloudy
10:53 PM 24.1 °F 16.0 °F 17.1 °F 75% 30.51 in 10.0 mi North 6.9 mph - N/A   Mostly Cloudy
11:53 PM 21.9 °F 12.5 °F 14.0 °F 72% 30.53 in 10.0 mi North 8.1 mph - N/A   Clear